| time (UTC) | temp F | wind direction | speed knots | gust knots | rain 1hr in | rain 24hr in | rain mn in | humidity % | barometer mb |
| 20260831154929 | 63 | 312 | 4.3 | 13.9 | 0.02 | 0.26 | 0.02 | 82 | 1010.7 |
| 20260831154428 | 64 | 234 | 7.0 | 14.8 | 0.02 | 0.26 | 0.02 | 80 | 1010.7 |
| 20260831153930 | 65 | 214 | 7.0 | 14.8 | 0.02 | 0.26 | 0.02 | 76 | 1010.7 |
| 20260831153429 | 66 | 244 | 5.2 | 10.4 | 0.00 | 0.24 | 0.00 | 74 | 1010.5 |
| 20260831152906 | 66 | 227 | 1.7 | 10.4 | 0.00 | 0.24 | 0.00 | 72 | 1010.3 |
| 20260831152403 | 66 | 275 | 3.5 | 10.4 | 0.00 | 0.24 | 0.00 | 72 | 1010.3 |
| 20260831151406 | 66 | 274 | 7.0 | 12.2 | 0.00 | 0.24 | 0.00 | 71 | 1010.3 |
| 20260831150903 | 66 | 238 | 5.2 | 14.8 | 0.00 | 0.24 | 0.00 | 71 | 1010.3 |
| 20260831150405 | 66 | 276 | 7.0 | 14.8 | 0.00 | 0.24 | 0.00 | 72 | 1010.1 |
| 20260831145332 | 66 | 224 | 5.2 | 13.0 | 0.00 | 0.24 | 0.00 | 72 | 1010.0 |
| 20260831144332 | 67 | 221 | 8.7 | 13.9 | 0.00 | 0.24 | 0.00 | 75 | 1009.8 |
| 20260831143832 | 67 | 241 | 7.8 | 13.9 | 0.00 | 0.24 | 0.00 | 75 | 1009.9 |
| 20260831143330 | 66 | 231 | 6.1 | 13.9 | 0.00 | 0.24 | 0.00 | 77 | 1009.7 |
| 20260831142833 | 65 | 220 | 5.2 | 13.9 | 0.00 | 0.24 | 0.00 | 77 | 1009.7 |
| 20260831142333 | 65 | 206 | 9.6 | 13.9 | 0.00 | 0.24 | 0.00 | 79 | 1009.7 |
| 20260831141832 | 65 | 212 | 8.7 | 13.0 | 0.00 | 0.24 | 0.00 | 79 | 1009.7 |
| 20260831140833 | 66 | 244 | 6.1 | 13.9 | 0.00 | 0.24 | 0.00 | 77 | 1009.7 |
| 20260831140332 | 66 | 248 | 5.2 | 13.0 | 0.00 | 0.24 | 0.00 | 75 | 1009.5 |
| 20260831135831 | 66 | 244 | 8.7 | 13.0 | 0.00 | 0.24 | 0.00 | 78 | 1009.5 |
| 20260831135332 | 64 | 285 | 6.1 | 13.0 | 0.00 | 0.24 | 0.00 | 76 | 1009.5 |
| 20260831133833 | 66 | 288 | 9.6 | 19.1 | 0.00 | 0.24 | 0.00 | 72 | 1009.2 |
| 20260831132830 | 66 | 289 | 5.2 | 15.6 | 0.00 | 0.24 | 0.00 | 72 | 1008.9 |
| 20260831132333 | 66 | 278 | 7.8 | 15.6 | 0.00 | 0.24 | 0.00 | 72 | 1008.9 |
| 20260831131831 | 66 | 250 | 7.0 | 13.0 | 0.00 | 0.24 | 0.00 | 71 | 1008.9 |
| 20260831130833 | 67 | 268 | 3.5 | 9.6 | 0.00 | 0.24 | 0.00 | 72 | 1008.8 |
| 20260831130336 | 66 | 283 | 4.3 | 9.6 | 0.00 | 0.24 | 0.00 | 71 | 1008.8 |
| 20260831125331 | 66 | 252 | 2.6 | 12.2 | 0.00 | 0.24 | 0.00 | 72 | 1008.7 |
| 20260831124832 | 65 | 330 | 6.1 | 12.2 | 0.00 | 0.24 | 0.00 | 72 | 1008.7 |
| 20260831123832 | 65 | 279 | 5.2 | 13.0 | 0.00 | 0.24 | 0.00 | 72 | 1008.6 |
| 20260831123331 | 66 | 290 | 8.7 | 13.0 | 0.00 | 0.24 | 0.00 | 71 | 1008.5 |
| 20260831122831 | 66 | 306 | 6.1 | 13.0 | 0.00 | 0.24 | 0.00 | 73 | 1008.6 |
| 20260831122331 | 65 | 286 | 4.3 | 13.0 | 0.00 | 0.24 | 0.00 | 72 | 1008.5 |
| 20260831121831 | 65 | 247 | 6.1 | 12.2 | 0.00 | 0.24 | 0.00 | 73 | 1008.4 |
| 20260831121332 | 65 | 282 | 5.2 | 12.2 | 0.00 | 0.24 | 0.00 | 73 | 1008.3 |
| 20260831120831 | 65 | 299 | 6.1 | 13.0 | 0.00 | 0.24 | 0.00 | 72 | 1008.4 |
| 20260831120333 | 65 | 271 | 7.0 | 15.6 | 0.00 | 0.24 | 0.00 | 73 | 1008.3 |
| 20260831115831 | 66 | 282 | 6.1 | 15.6 | 0.00 | 0.24 | 0.00 | 73 | 1008.1 |
| 20260831115332 | 66 | 245 | 5.2 | 12.2 | 0.00 | 0.24 | 0.00 | 74 | 1008.0 |
| 20260831114831 | 66 | 220 | 6.1 | 11.3 | 0.00 | 0.24 | 0.00 | 76 | 1008.0 |
| 20260831114331 | 66 | 307 | 6.1 | 12.2 | 0.00 | 0.24 | 0.00 | 76 | 1007.9 |
| 20260831113830 | 66 | 306 | 4.3 | 12.2 | 0.00 | 0.24 | 0.00 | 78 | 1007.8 |
| 20260831113331 | 66 | 296 | 7.0 | 11.3 | 0.00 | 0.24 | 0.00 | 78 | 1007.8 |
| 20260831112831 | 66 | 309 | 4.3 | 9.6 | 0.00 | 0.24 | 0.00 | 78 | 1007.7 |
| 20260831112331 | 64 | 279 | 5.2 | 9.6 | 0.00 | 0.24 | 0.00 | 80 | 1007.7 |
| 20260831111832 | 64 | 282 | 5.2 | 11.3 | 0.00 | 0.24 | 0.00 | 81 | 1007.6 |
| 20260831111330 | 64 | 317 | 5.2 | 11.3 | 0.00 | 0.24 | 0.00 | 84 | 1007.6 |
| 20260831110831 | 64 | 274 | 4.3 | 11.3 | 0.00 | 0.24 | 0.00 | 84 | 1007.5 |
| 20260831110331 | 62 | 254 | 4.3 | 10.4 | 0.00 | 0.24 | 0.00 | 83 | 1007.5 |
| 20260831104829 | 63 | 228 | 6.1 | 11.3 | 0.00 | 0.24 | 0.00 | 83 | 1007.3 |
| 20260831104331 | 63 | 272 | 2.6 | 7.8 | 0.00 | 0.24 | 0.00 | 82 | 1007.2 |
| 20260831103832 | 64 | 234 | 4.3 | 7.8 | 0.00 | 0.24 | 0.00 | 82 | 1007.1 |
| 20260831102831 | 64 | 275 | 4.3 | 7.8 | 0.00 | 0.24 | 0.00 | 81 | 1007.0 |
| 20260831102332 | 63 | 238 | 2.6 | 7.8 | 0.00 | 0.24 | 0.00 | 84 | 1007.0 |
| 20260831101829 | 62 | 259 | 5.2 | 7.8 | 0.00 | 0.24 | 0.00 | 87 | 1007.0 |
| 20260831101332 | 61 | 309 | 4.3 | 9.6 | 0.00 | 0.24 | 0.00 | 86 | 1007.0 |
| 20260831100831 | 62 | 321 | 3.5 | 9.6 | 0.00 | 0.24 | 0.00 | 85 | 1006.9 |
| 20260831100330 | 62 | 286 | 2.6 | 9.6 | 0.00 | 0.24 | 0.00 | 85 | 1007.1 |
| 20260831095836 | 62 | 298 | 4.3 | 9.6 | 0.00 | 0.24 | 0.00 | 86 | 1007.0 |
| 20260831095331 | 62 | 283 | 3.5 | 10.4 | 0.00 | 0.24 | 0.00 | 86 | 1006.9 |
| 20260831094831 | 62 | 289 | 4.3 | 10.4 | 0.00 | 0.24 | 0.00 | 86 | 1006.9 |
| 20260831093829 | 61 | 266 | 2.6 | 9.6 | 0.00 | 0.24 | 0.00 | 90 | 1006.9 |
| 20260831093331 | 60 | 252 | 5.2 | 7.8 | 0.00 | 0.24 | 0.00 | 92 | 1006.8 |
| 20260831092832 | 59 | 252 | 4.3 | 7.0 | 0.00 | 0.24 | 0.00 | 92 | 1006.7 |
| 20260831091832 | 58 | 286 | 4.3 | 7.0 | 0.00 | 0.24 | 0.00 | 94 | 1006.6 |
| 20260831091331 | 58 | 233 | 1.7 | 7.8 | 0.00 | 0.24 | 0.00 | 94 | 1006.5 |
| 20260831090830 | 58 | 276 | 4.3 | 7.8 | 0.00 | 0.24 | 0.00 | 94 | 1006.6 |
| 20260831090329 | 58 | 226 | 3.5 | 7.0 | 0.00 | 0.24 | 0.00 | 94 | 1006.5 |
| 20260831085831 | 57 | 262 | 3.5 | 7.8 | 0.00 | 0.24 | 0.00 | 95 | 1006.3 |
| 20260831085329 | 57 | 224 | 3.5 | 7.8 | 0.00 | 0.24 | 0.00 | 95 | 1006.3 |
| 20260831084829 | 56 | 252 | 5.2 | 7.8 | 0.00 | 0.24 | 0.00 | 95 | 1006.2 |
| 20260831084330 | 56 | 243 | 3.5 | 6.1 | 0.00 | 0.24 | 0.00 | 95 | 1006.1 |
| 20260831083830 | 56 | 244 | 4.3 | 7.0 | 0.00 | 0.24 | 0.00 | 95 | 1006.0 |
| 20260831083330 | 56 | 266 | 2.6 | 7.0 | 0.00 | 0.24 | 0.00 | 95 | 1005.9 |
| 20260831082831 | 56 | 266 | 3.5 | 7.0 | 0.00 | 0.24 | 0.00 | 96 | 1005.8 |
| 20260831082330 | 55 | 248 | 3.5 | 7.0 | 0.00 | 0.24 | 0.00 | 96 | 1005.7 |
| 20260831081331 | 55 | 243 | 4.3 | 7.8 | 0.00 | 0.24 | 0.00 | 97 | 1005.7 |
| 20260831080806 | 55 | 248 | 3.5 | 7.8 | 0.00 | 0.24 | 0.00 | 97 | 1005.4 |
| 20260831080305 | 55 | 244 | 4.3 | 7.8 | 0.00 | 0.24 | 0.00 | 97 | 1005.3 |
| 20260831075804 | 55 | 220 | 3.5 | 7.8 | 0.00 | 0.24 | 0.00 | 97 | 1005.3 |
| 20260831075306 | 54 | 247 | 2.6 | 7.0 | 0.00 | 0.24 | 0.00 | 97 | 1005.2 |
| 20260831074757 | 54 | 237 | 4.3 | 7.0 | 0.00 | 0.24 | 0.00 | 97 | 1005.2 |
| 20260831074252 | 54 | 202 | 2.6 | 7.8 | 0.00 | 0.25 | 0.00 | 97 | 1005.2 |
| 20260831073731 | 54 | 217 | 4.3 | 10.4 | 0.00 | 0.25 | 0.00 | 97 | 1005.1 |
| 20260831072734 | 54 | 221 | 4.3 | 7.8 | 0.00 | 0.25 | 0.00 | 98 | 1005.0 |
| 20260831072232 | 54 | 282 | 4.3 | 9.6 | 0.00 | 0.25 | 0.00 | 98 | 1004.8 |
| 20260831071740 | 54 | 209 | 4.3 | 9.6 | 0.00 | 0.25 | 0.00 | 98 | 1004.7 |
| 20260831071230 | 54 | 251 | 3.5 | 7.0 | 0.00 | 0.25 | 0.00 | 98 | 1004.7 |
| 20260831070233 | 54 | 234 | 4.3 | 10.4 | 0.00 | 0.25 | 0.00 | 98 | 1004.5 |
| 20260831065732 | 54 | 243 | 5.2 | 10.4 | 0.00 | 0.25 | 0.00 | 98 | 1004.5 |
| 20260831065231 | 54 | 234 | 3.5 | 7.0 | 0.00 | 0.25 | 0.00 | 98 | 1004.5 |
| 20260831064717 | 54 | 281 | 2.6 | 7.0 | 0.00 | 0.25 | 0.00 | 98 | 1004.4 |
| 20260831063707 | 54 | 252 | 2.6 | 6.1 | 0.00 | 0.25 | 0.00 | 98 | 1004.2 |
| 20260831063205 | 53 | 255 | 2.6 | 6.1 | 0.00 | 0.25 | 0.00 | 98 | 1004.1 |
| 20260831062708 | 53 | 272 | 2.6 | 6.1 | 0.00 | 0.25 | 0.00 | 98 | 1004.1 |
| 20260831060705 | 53 | 245 | 1.7 | 5.2 | 0.00 | 0.25 | 0.00 | 98 | 1003.9 |
| 20260831055651 | 53 | 255 | 1.7 | 6.1 | 0.00 | 0.25 | 0.00 | 98 | 1003.7 |
| 20260831055144 | 53 | 227 | 2.6 | 6.1 | 0.00 | 0.25 | 0.00 | 98 | 1003.6 |
| 20260831054130 | 53 | 245 | 2.6 | 6.1 | 0.00 | 0.25 | 0.00 | 98 | 1003.6 |
| 20260831053130 | 53 | 258 | 2.6 | 6.1 | 0.00 | 0.25 | 0.00 | 98 | 1003.5 |
| 20260831052608 | 53 | 238 | 1.7 | 6.1 | 0.00 | 0.25 | 0.00 | 98 | 1003.4 |
| 20260831052105 | 53 | 295 | 1.7 | 5.2 | 0.00 | 0.25 | 0.00 | 98 | 1003.3 |
| 20260831051606 | 53 | 265 | 1.7 | 5.2 | 0.00 | 0.25 | 0.00 | 98 | 1003.3 |
| 20260831050605 | 53 | 250 | 1.7 | 5.2 | 0.00 | 0.25 | 0.00 | 98 | 1003.2 |
| 20260831050108 | 53 | 266 | 3.5 | 5.2 | 0.00 | 0.25 | 0.00 | 98 | 1003.1 |
| 20260831045605 | 53 | 257 | 2.6 | 7.0 | 0.00 | 0.25 | 0.00 | 98 | 1003.2 |
| 20260831044530 | 53 | 272 | 2.6 | 6.1 | 0.00 | 0.25 | 0.00 | 98 | 1003.0 |
| 20260831044032 | 53 | 252 | 3.5 | 6.1 | 0.00 | 0.25 | 0.00 | 98 | 1003.0 |
| 20260831043529 | 53 | 252 | 4.3 | 6.1 | 0.00 | 0.25 | 0.00 | 98 | 1003.0 |
| 20260831042531 | 53 | 250 | 2.6 | 6.1 | 0.00 | 0.25 | 0.00 | 98 | 1003.0 |
| 20260831041528 | 52 | 252 | 2.6 | 6.1 | 0.00 | 0.25 | 0.00 | 97 | 1002.9 |
| 20260831040532 | 52 | 274 | 3.5 | 6.1 | 0.00 | 0.25 | 0.00 | 97 | 1002.9 |
| 20260831040029 | 52 | 262 | 3.5 | 6.1 | 0.00 | 0.25 | 0.00 | 97 | 1002.9 |
| 20260831035530 | 52 | 251 | 3.5 | 6.1 | 0.00 | 0.25 | 0.00 | 97 | 1002.8 |
| 20260831034529 | 52 | 258 | 1.7 | 5.2 | 0.00 | 0.25 | 0.00 | 97 | 1002.6 |
| 20260831034031 | 52 | 227 | 1.7 | 5.2 | 0.00 | 0.25 | 0.00 | 97 | 1002.6 |
| 20260831033528 | 52 | 226 | 2.6 | 5.2 | 0.00 | 0.25 | 0.00 | 96 | 1002.6 |
| 20260831033029 | 52 | 240 | 2.6 | 6.1 | 0.00 | 0.25 | 0.00 | 96 | 1002.6 |
| 20260831032530 | 52 | 247 | 2.6 | 6.1 | 0.00 | 0.25 | 0.00 | 96 | 1002.5 |
| 20260831032030 | 52 | 259 | 2.6 | 5.2 | 0.00 | 0.25 | 0.00 | 96 | 1002.5 |
| 20260831031530 | 52 | 272 | 1.7 | 6.1 | 0.00 | 0.25 | 0.00 | 96 | 1002.5 |
| 20260831031048 | 52 | 269 | 3.5 | 6.1 | 0.00 | 0.25 | 0.00 | 96 | 1002.4 |
| 20260831030529 | 53 | 261 | 2.6 | 6.1 | 0.00 | 0.25 | 0.00 | 96 | 1002.4 |
| 20260831030031 | 53 | 271 | 2.6 | 6.1 | 0.00 | 0.25 | 0.00 | 96 | 1002.3 |
| 20260831025531 | 53 | 271 | 2.6 | 7.0 | 0.00 | 0.25 | 0.00 | 96 | 1002.5 |
| 20260831025029 | 53 | 204 | 3.5 | 7.0 | 0.00 | 0.25 | 0.00 | 96 | 1002.3 |
| 20260831024530 | 53 | 223 | 4.3 | 7.0 | 0.00 | 0.25 | 0.00 | 96 | 1002.3 |
| 20260831024033 | 53 | 243 | 1.7 | 6.1 | 0.00 | 0.25 | 0.00 | 96 | 1002.3 |
| 20260831023530 | 53 | 262 | 2.6 | 7.0 | 0.00 | 0.25 | 0.00 | 96 | 1002.3 |
| 20260831023029 | 54 | 258 | 3.5 | 7.0 | 0.00 | 0.25 | 0.00 | 96 | 1002.3 |
| 20260831022530 | 54 | 227 | 2.6 | 6.1 | 0.00 | 0.25 | 0.00 | 96 | 1002.2 |
| 20260831022031 | 53 | 207 | 3.5 | 6.1 | 0.00 | 0.25 | 0.00 | 96 | 1002.1 |
| 20260831021528 | 54 | 209 | 1.7 | 6.1 | 0.00 | 0.25 | 0.00 | 96 | 1002.2 |
| 20260831021031 | 54 | 257 | 1.7 | 6.1 | 0.00 | 0.25 | 0.00 | 96 | 1002.3 |
| 20260831020529 | 53 | 212 | 3.5 | 7.8 | 0.00 | 0.25 | 0.00 | 96 | 1002.2 |
| 20260831020034 | 53 | 214 | 3.5 | 7.8 | 0.00 | 0.25 | 0.00 | 95 | 1002.2 |
| 20260831015532 | 53 | 247 | 1.7 | 4.3 | 0.00 | 0.25 | 0.00 | 95 | 1002.2 |
| 20260831015031 | 53 | 247 | 1.7 | 5.2 | 0.00 | 0.25 | 0.00 | 95 | 1002.2 |
| 20260831014532 | 54 | 247 | 1.7 | 5.2 | 0.00 | 0.25 | 0.00 | 95 | 1002.1 |
| 20260831014031 | 54 | 247 | 1.7 | 5.2 | 0.00 | 0.25 | 0.00 | 95 | 1002.0 |
| 20260831013530 | 54 | 247 | 1.7 | 5.2 | 0.00 | 0.25 | 0.00 | 95 | 1002.1 |
| 20260831013032 | 54 | 247 | 1.7 | 5.2 | 0.00 | 0.25 | 0.00 | 95 | 1002.1 |
| 20260831012530 | 54 | 247 | 2.6 | 4.3 | 0.00 | 0.25 | 0.00 | 95 | 1002.2 |
| 20260831011530 | 54 | 247 | 1.7 | 4.3 | 0.00 | 0.25 | 0.00 | 95 | 1002.2 |
| 20260831011031 | 55 | 258 | 1.7 | 4.3 | 0.00 | 0.25 | 0.00 | 94 | 1002.2 |
| 20260831005529 | 55 | 237 | 1.7 | 5.2 | 0.00 | 0.25 | 0.00 | 94 | 1002.2 |
| 20260831004530 | 55 | 258 | 1.7 | 5.2 | 0.00 | 0.25 | 0.00 | 94 | 1002.2 |
| 20260831004031 | 56 | 234 | 0.9 | 5.2 | 0.00 | 0.25 | 0.00 | 95 | 1002.2 |
| 20260831003529 | 56 | 234 | 1.7 | 5.2 | 0.00 | 0.25 | 0.00 | 95 | 1002.2 |
| 20260831003031 | 56 | 213 | 1.7 | 6.1 | 0.00 | 0.25 | 0.00 | 95 | 1002.2 |
| 20260831002529 | 56 | 175 | 2.6 | 6.1 | 0.00 | 0.25 | 0.00 | 95 | 1002.2 |
| 20260831002030 | 56 | 162 | 3.5 | 7.8 | 0.00 | 0.25 | 0.00 | 95 | 1002.4 |
| 20260831001030 | 56 | 214 | 2.6 | 7.8 | 0.00 | 0.25 | 0.00 | 95 | 1002.5 |
| 20260830235530 | 56 | 217 | 4.3 | 9.6 | 0.00 | 0.25 | 0.00 | 95 | 1002.6 |
| 20260830235033 | 56 | 189 | 3.5 | 9.6 | 0.00 | 0.25 | 0.00 | 95 | 1002.7 |
| 20260830234512 | 56 | 186 | 3.5 | 6.1 | 0.00 | 0.25 | 0.00 | 95 | 1002.7 |
| 20260830234004 | 56 | 199 | 1.7 | 5.2 | 0.00 | 0.25 | 0.00 | 95 | 1002.8 |
| 20260830233504 | 56 | 224 | 1.7 | 7.0 | 0.00 | 0.25 | 0.00 | 95 | 1002.9 |
| 20260830233006 | 56 | 172 | 0.9 | 7.8 | 0.00 | 0.25 | 0.00 | 95 | 1002.8 |
| 20260830232505 | 56 | 141 | 3.5 | 7.8 | 0.00 | 0.25 | 0.00 | 95 | 1002.8 |
| 20260830232009 | 56 | 144 | 3.5 | 6.1 | 0.00 | 0.25 | 0.00 | 95 | 1002.8 |
| 20260830231004 | 56 | 121 | 2.6 | 6.1 | 0.00 | 0.25 | 0.00 | 95 | 1002.8 |
| 20260830230506 | 56 | 161 | 1.7 | 5.2 | 0.00 | 0.25 | 0.00 | 95 | 1002.9 |
| 20260830230004 | 56 | 157 | 1.7 | 7.8 | 0.00 | 0.25 | 0.00 | 95 | 1002.9 |
| 20260830225505 | 56 | 166 | 2.6 | 7.8 | 0.00 | 0.25 | 0.25 | 95 | 1003.0 |
| 20260830225007 | 56 | 221 | 2.6 | 6.1 | 0.00 | 0.25 | 0.25 | 95 | 1002.9 |
| 20260830224505 | 56 | 195 | 1.7 | 5.2 | 0.00 | 0.25 | 0.25 | 95 | 1003.0 |
| 20260830224004 | 56 | 195 | 0.9 | 6.1 | 0.00 | 0.25 | 0.25 | 95 | 1003.0 |
| 20260830222935 | 56 | 186 | 1.7 | 6.1 | 0.00 | 0.25 | 0.25 | 95 | 1002.9 |
| 20260830222431 | 56 | 193 | 0.9 | 4.3 | 0.00 | 0.25 | 0.25 | 95 | 1003.0 |
| 20260830221932 | 56 | 217 | 0.9 | 4.3 | 0.00 | 0.25 | 0.25 | 95 | 1003.1 |
| 20260830221429 | 56 | 196 | 1.7 | 4.3 | 0.00 | 0.25 | 0.25 | 95 | 1003.1 |
| 20260830220928 | 56 | 145 | 0.9 | 2.6 | 0.00 | 0.25 | 0.25 | 94 | 1003.1 |
| 20260830220426 | 56 | 114 | 0.9 | 4.3 | 0.00 | 0.25 | 0.25 | 94 | 1003.1 |
| 20260830214907 | 56 | 281 | 0.9 | 2.6 | 0.00 | 0.25 | 0.25 | 94 | 1003.1 |
| 20260830214405 | 56 | 281 | 0.0 | 1.7 | 0.00 | 0.25 | 0.25 | 94 | 1003.1 |
| 20260830213403 | 56 | 281 | 0.0 | 1.7 | 0.01 | 0.25 | 0.25 | 94 | 1003.2 |
| 20260830212329 | 56 | 281 | 0.0 | 2.6 | 0.01 | 0.25 | 0.25 | 94 | 1003.2 |
| 20260830211829 | 56 | 281 | 0.0 | 4.3 | 0.04 | 0.25 | 0.25 | 93 | 1003.2 |
| 20260830210830 | 56 | 281 | 1.7 | 4.3 | 0.06 | 0.25 | 0.25 | 93 | 1003.3 |
| 20260830210329 | 56 | 213 | 0.9 | 4.3 | 0.07 | 0.25 | 0.25 | 93 | 1003.4 |
| 20260830205830 | 56 | 213 | 1.7 | 6.1 | 0.09 | 0.25 | 0.25 | 93 | 1003.5 |
| 20260830204828 | 57 | 220 | 3.5 | 7.0 | 0.11 | 0.25 | 0.25 | 93 | 1003.3 |
| 20260830204331 | 57 | 230 | 3.5 | 11.3 | 0.12 | 0.25 | 0.25 | 93 | 1003.5 |
| 20260830203831 | 57 | 235 | 3.5 | 11.3 | 0.12 | 0.26 | 0.25 | 93 | 1003.6 |
| 20260830203328 | 57 | 226 | 4.3 | 9.6 | 0.11 | 0.25 | 0.24 | 93 | 1003.6 |
| 20260830202829 | 57 | 221 | 5.2 | 7.8 | 0.11 | 0.25 | 0.24 | 93 | 1003.7 |
| 20260830202328 | 57 | 190 | 2.6 | 5.2 | 0.11 | 0.25 | 0.24 | 93 | 1003.8 |
| 20260830201831 | 57 | 212 | 2.6 | 6.1 | 0.08 | 0.22 | 0.20 | 92 | 1003.7 |
| 20260830201331 | 57 | 202 | 4.3 | 7.8 | 0.08 | 0.22 | 0.20 | 92 | 1003.8 |
| 20260830200807 | 58 | 171 | 3.5 | 10.4 | 0.06 | 0.20 | 0.19 | 92 | 1004.0 |
| 20260830200305 | 58 | 169 | 7.0 | 12.2 | 0.05 | 0.19 | 0.18 | 92 | 1004.0 |
| 20260830195758 | 58 | 206 | 6.1 | 12.2 | 0.03 | 0.17 | 0.15 | 92 | 1004.0 |
| 20260830195259 | 58 | 138 | 7.0 | 12.2 | 0.02 | 0.16 | 0.14 | 92 | 1004.1 |
| 20260830194754 | 58 | 186 | 7.0 | 10.4 | 0.01 | 0.15 | 0.13 | 92 | 1004.0 |
| 20260830194255 | 58 | 188 | 4.3 | 9.6 | 0.00 | 0.14 | 0.13 | 92 | 1003.7 |
| 20260830193754 | 58 | 231 | 1.7 | 5.2 | 0.00 | 0.14 | 0.13 | 93 | 1003.6 |
| 20260830193248 | 58 | 227 | 1.7 | 5.2 | 0.01 | 0.14 | 0.13 | 93 | 1003.5 |
| 20260830192749 | 58 | 173 | 0.9 | 5.2 | 0.01 | 0.14 | 0.13 | 93 | 1003.4 |
| 20260830191729 | 58 | 202 | 3.5 | 7.8 | 0.01 | 0.14 | 0.13 | 93 | 1003.4 |
| 20260830191228 | 58 | 200 | 3.5 | 7.0 | 0.01 | 0.14 | 0.13 | 93 | 1003.4 |
| 20260830190728 | 59 | 199 | 3.5 | 6.1 | 0.01 | 0.14 | 0.13 | 93 | 1003.4 |
| 20260830190229 | 59 | 199 | 3.5 | 6.1 | 0.01 | 0.14 | 0.13 | 93 | 1003.5 |
| 20260830185208 | 59 | 195 | 2.6 | 6.1 | 0.01 | 0.14 | 0.13 | 93 | 1003.6 |
| 20260830184703 | 59 | 193 | 3.5 | 6.1 | 0.01 | 0.14 | 0.13 | 93 | 1003.6 |
| 20260830184205 | 59 | 183 | 2.6 | 7.8 | 0.01 | 0.14 | 0.13 | 93 | 1003.7 |
| 20260830183706 | 59 | 169 | 2.6 | 7.8 | 0.01 | 0.14 | 0.13 | 93 | 1003.6 |
| 20260830182707 | 59 | 185 | 4.3 | 7.0 | 0.00 | 0.13 | 0.13 | 93 | 1003.7 |
| 20260830182145 | 59 | 178 | 2.6 | 6.1 | 0.00 | 0.13 | 0.13 | 93 | 1003.7 |
| 20260830181635 | 59 | 186 | 3.5 | 6.1 | 0.00 | 0.13 | 0.13 | 93 | 1003.6 |
| 20260830180634 | 59 | 159 | 3.5 | 9.6 | 0.00 | 0.13 | 0.13 | 94 | 1003.6 |
| 20260830180136 | 59 | 169 | 4.3 | 7.8 | 0.00 | 0.13 | 0.13 | 94 | 1003.6 |
| 20260830175628 | 59 | 154 | 3.5 | 7.0 | 0.00 | 0.13 | 0.13 | 94 | 1003.7 |
| 20260830175130 | 60 | 196 | 3.5 | 7.8 | 0.00 | 0.13 | 0.13 | 94 | 1003.8 |
| 20260830174129 | 60 | 195 | 2.6 | 7.0 | 0.00 | 0.13 | 0.13 | 95 | 1003.9 |
| 20260830173629 | 60 | 179 | 3.5 | 7.0 | 0.01 | 0.13 | 0.13 | 94 | 1004.0 |
| 20260830171629 | 60 | 165 | 4.3 | 7.0 | 0.10 | 0.13 | 0.13 | 94 | 1004.1 |
| 20260830171129 | 59 | 247 | 1.7 | 6.1 | 0.12 | 0.13 | 0.13 | 94 | 1004.0 |
| 20260830170129 | 59 | 200 | 5.2 | 9.6 | 0.12 | 0.13 | 0.13 | 94 | 1004.2 |
| 20260830165630 | 59 | 220 | 4.3 | 7.0 | 0.12 | 0.13 | 0.13 | 93 | 1004.3 |
| 20260830165129 | 59 | 274 | 3.5 | 7.0 | 0.12 | 0.13 | 0.13 | 93 | 1004.2 |
| 20260830164628 | 59 | 243 | 2.6 | 7.0 | 0.12 | 0.13 | 0.13 | 93 | 1004.2 |
| 20260830163628 | 60 | 188 | 5.2 | 10.4 | 0.11 | 0.13 | 0.12 | 92 | 1004.2 |
| 20260830162627 | 60 | 193 | 6.1 | 13.9 | 0.10 | 0.12 | 0.10 | 90 | 1004.6 |
| 20260830162127 | 61 | 212 | 6.1 | 13.9 | 0.06 | 0.08 | 0.02 | 87 | 1004.8 |
| 20260830161628 | 61 | 192 | 7.8 | 12.2 | 0.02 | 0.03 | 0.02 | 87 | 1004.7 |
| 20260830161128 | 63 | 231 | 6.1 | 12.2 | 0.00 | 0.02 | 0.01 | 84 | 1004.6 |